Location: City of Moscow
(46.7306°N, 116.9989°W)
Time: 03:32:28
(UTC+00:00)

Tiangong - Pass Details

Date: 20 February 2026
Orbit: 382 x 391 km, 41.5° (Epoch: 6 March)

Event Time Altitude Azimuth Distance (km) Brightness Sun altitude
Rises 03:06:39 0° 263° (W) 2,256 3.3 -19.0°
Reaches altitude 10° 03:09:31 10° 235° (SW) 1,397 1.4 -19.5°
Maximum altitude 03:11:07 13° 204° (SSW) 1,218 0.6 -19.8°
Enters shadow 03:11:57 12° 187° (S) 1,268 0.5 -19.9°
